Weather History for Quillayute, WA

Change the Weather History Date:

Wednesday, November 10, 2010

  Actual Average Record
Temperature  
Mean Temperature 44 °F 45 °F  
Max Temperature 52 °F 51 °F 65 °F (1976)
Min Temperature 35 °F 39 °F 23 °F (1982)
Degree Days  
Heating Degree Days 21 20  
Month to date heating degree days 190  
Since 1 July heating degree days 1280  
Cooling Degree Days 0 0  
Month to date cooling degree days 0  
Year to date cooling degree days 19  
Moisture  
Dew Point 39 °F    
Average Humidity 90    
Maximum Humidity 100    
Minimum Humidity 66    
Precipitation  
Precipitation 0.00 in 0.52 in 2.10 in (2006)
Month to date precipitation 4.93  
Year to date precipitation 75.96  
Sea Level Pressure  
Sea Level Pressure 30.17 in    
Wind  
Wind Speed 3 mph (East)    
Max Wind Speed 9 mph    
Max Gust Speed 10 mph    
Visibility 6 miles    
Events Fog    
T = Trace of Precipitation, MM = Missing Value Source: NWS Daily Summary

Daily Weather History Graph

Daily Weather History Graph

Search for Another Location

Airport:

Trip Planner

Search our weather history database for the weather conditions in past years. The results will help you decide how hot, cold, wet, or windy it might be!

Date:

Astronomy

Nov. 10, 2010 Rise Set
Actual Time 7:16 AM PST 4:46 PM PST
Civil Twilight 6:43 AM PST 5:20 PM PST
Nautical Twilight 6:06 AM PST 5:57 PM PST
Astronomical Twilight 5:29 AM PST 6:33 PM PST
Moon 11:52 AM PST (11/10) 8:49 PM PST (11/10)
Length of Visible Light 10h 36m
Length of Day
9h 29m
Waxing Crescent, 23% of the Moon is Illuminated
Nov 10
Waxing Crescent
Nov 13
First Quarter
Nov 21
Full
Nov 28
Last Quarter
Dec 5
New

Hourly Weather History & Observations

Time (PST) Temp. Windchill Dew Point Humidity Pressure Visibility Wind Dir Wind Speed Gust Speed Precip Events Conditions
12:53 AM 39.9 °F - 37.9 °F 93% 29.90 in 10.0 mi Calm Calm - N/A   Clear
1:53 AM 43.0 °F 38.8 °F 41.0 °F 93% 29.92 in 10.0 mi North 6.9 mph - N/A   Overcast
2:53 AM 42.1 °F 37.7 °F 39.0 °F 89% 29.96 in 10.0 mi North 6.9 mph - N/A   Partly Cloudy
3:53 AM 42.1 °F 37.1 °F 39.0 °F 89% 29.97 in 10.0 mi North 8.1 mph - N/A   Clear
4:53 AM 41.0 °F 35.8 °F 39.0 °F 93% 29.99 in 10.0 mi North 8.1 mph - N/A   Clear
5:53 AM 39.9 °F 35.1 °F 37.9 °F 93% 30.02 in 10.0 mi North 6.9 mph - N/A   Clear
6:53 AM 37.0 °F - 35.1 °F 93% 30.05 in 8.0 mi Calm Calm - N/A   Clear
7:32 AM 37.4 °F 34.9 °F 35.6 °F 93% 30.08 in 1.5 mi ESE 3.5 mph - N/A   Clear
7:34 AM 37.4 °F 33.8 °F 35.6 °F 93% 30.08 in 0.8 mi ESE 4.6 mph - N/A   Clear
7:40 AM 35.6 °F 32.8 °F 35.6 °F 100% 30.08 in 0.2 mi ESE 3.5 mph - N/A Fog Fog
7:53 AM 36.0 °F - 34.0 °F 93% 30.10 in 0.2 mi Calm Calm - N/A Fog Fog
8:09 AM 35.6 °F 32.8 °F 35.6 °F 100% 30.10 in 1.0 mi ENE 3.5 mph - N/A   Partly Cloudy
8:15 AM 37.4 °F 34.9 °F 35.6 °F 93% 30.10 in 3.0 mi East 3.5 mph - N/A   Partly Cloudy
8:53 AM 39.9 °F 35.8 °F 37.0 °F 89% 30.12 in 10.0 mi ENE 5.8 mph - N/A   Clear
9:53 AM 44.1 °F 41.5 °F 39.9 °F 85% 30.15 in 10.0 mi East 4.6 mph - N/A   Clear
10:53 AM 48.0 °F - 42.1 °F 80% 30.18 in 10.0 mi Calm Calm - N/A   Scattered Clouds
11:09 AM 48.2 °F - 42.8 °F 82% 30.17 in 10.0 mi East 3.5 mph - N/A   Mostly Cloudy
11:53 AM 48.9 °F - 43.0 °F 80% 30.19 in 10.0 mi ENE 3.5 mph - N/A   Overcast
12:24 PM 48.2 °F - 42.8 °F 82% 30.20 in 10.0 mi Calm Calm - N/A   Overcast
12:53 PM 51.1 °F - 43.0 °F 74% 30.21 in 10.0 mi Calm Calm - N/A   Overcast
1:53 PM 51.1 °F - 42.1 °F 71% 30.20 in 10.0 mi Calm Calm - N/A   Scattered Clouds
2:29 PM 51.8 °F - 42.8 °F 71% 30.20 in 10.0 mi South 4.6 mph - N/A   Mostly Cloudy
2:39 PM 51.8 °F - 42.8 °F 71% 30.21 in 10.0 mi South 3.5 mph - N/A   Scattered Clouds
2:53 PM 52.0 °F - 41.0 °F 66% 30.21 in 10.0 mi South 4.6 mph - N/A   Partly Cloudy
3:53 PM 51.1 °F - 41.0 °F 68% 30.23 in 10.0 mi Calm Calm - N/A   Clear
4:53 PM 45.0 °F - 42.1 °F 90% 30.23 in 10.0 mi Calm Calm - N/A   Partly Cloudy
5:13 PM 44.6 °F - 42.8 °F 93% 30.23 in 10.0 mi Calm Calm - N/A   Mostly Cloudy
5:25 PM 42.8 °F - 41.0 °F 93% 30.23 in 10.0 mi Calm Calm - N/A   Mostly Cloudy
5:53 PM 42.1 °F - 39.9 °F 92% 30.25 in 6.0 mi Calm Calm - N/A   Clear
6:30 PM 39.2 °F - 37.4 °F 93% 30.25 in 1.8 mi Calm Calm - N/A   Clear
6:35 PM 39.2 °F - 37.4 °F 93% 30.26 in 0.8 mi Calm Calm - N/A   Clear
6:53 PM 39.0 °F - 37.9 °F 96% 30.26 in 1.0 mi Calm Calm - N/A   Partly Cloudy
6:57 PM 39.2 °F - 39.2 °F 100% 30.25 in 2.0 mi Calm Calm - N/A   Partly Cloudy
7:05 PM 39.2 °F - 39.2 °F 100% 30.25 in 1.2 mi Calm Calm - N/A   Partly Cloudy
7:13 PM 39.2 °F - 37.4 °F 93% 30.25 in 0.8 mi Calm Calm - N/A   Partly Cloudy
7:53 PM 37.9 °F - 36.0 °F 93% 30.27 in 1.0 mi Calm Calm - N/A   Clear
7:56 PM 37.4 °F - 35.6 °F 93% 30.26 in 2.0 mi Calm Calm - N/A   Partly Cloudy
8:01 PM 37.4 °F - 35.6 °F 93% 30.27 in 1.2 mi Calm Calm - N/A   Partly Cloudy
8:10 PM 37.4 °F - 35.6 °F 93% 30.27 in 0.5 mi Calm Calm - N/A Fog Fog
8:20 PM 37.4 °F - 37.4 °F 100% 30.27 in 1.5 mi Calm Calm - N/A   Mostly Cloudy
8:33 PM 37.4 °F 33.8 °F 37.4 °F 100% 30.27 in 3.0 mi East 4.6 mph - N/A   Overcast
8:53 PM 41.0 °F 37.1 °F 39.9 °F 96% 30.27 in 10.0 mi ENE 5.8 mph - N/A   Overcast
9:53 PM 39.9 °F - 39.0 °F 97% 30.29 in 10.0 mi Calm Calm - N/A   Scattered Clouds
10:53 PM 39.9 °F 36.7 °F 37.9 °F 93% 30.28 in 10.0 mi East 4.6 mph - N/A   Clear
11:53 PM 39.9 °F 37.8 °F 37.9 °F 93% 30.28 in 10.0 mi East 3.5 mph - N/A   Clear